Regional Weather Roundup
Issued by NWS

Home | Current Version | Previous Version | Graphics & Text | Print | Product List | Glossary On
Versions: 1 2 3 4 5 6 7 8 9 10 11 12 13 14 15 16 17 18 19 20 21 22 23 24 25 26 27 28 29 30 31 32 33 34 35 36 37 38 39 40 41 42 43 44 45 46 47 48 49 50
000
ASUS43 KMPX 190901
RWRMN
WEATHER ROUNDUP FOR MINNESOTA
NATIONAL WEATHER SERVICE TWIN CITIES/CHANHASSEN MN
400 AM CDT THU APR 19 2018


NOTE: "FAIR" INDICATES FEW OR NO CLOUDS BELOW 12,000 FEET WITH NO
SIGNIFICANT WEATHER AND/OR OBSTRUCTIONS TO VISIBILITY. N/A MEANS
CURRENT SKY AND/OR WEATHER CONDITIONS ARE NOT AVAILABLE.

MNZ060>063-068>070-191000-
   Twin Cities Metro

CITY           SKY/WX    TMP DP  RH WIND       PRES   REMARKS
TWIN CITIES    FAIR      26  17  68 NW5       30.31R WCI  20
ST PAUL        FAIR      26  17  68 NW3       30.32R
CRYSTAL        FAIR      25  15  66 NW6       30.31R WCI  18
BLAINE         FAIR      27  18  69 NW3       30.31R
LAKEVILLE      FAIR      21  16  79 CALM      30.29R
EDEN PRAIRIE   FAIR      30  14  51 NW7       30.30R WCI  23
SOUTH ST PAUL  FAIR      26  17  70 CALM      30.31R
LAKE ELMO      FAIR      23  18  80 CALM      30.31R
$$
MNZ001>005-007-008-013>017-022>024-027-028-191000-
   Northwest Minnesota

CITY           SKY/WX    TMP DP  RH WIND       PRES   REMARKS
BEMIDJI        FAIR      24  17  75 CALM      30.32R
HALLOCK        FAIR      34  27  75 SE7       30.34R WCI  28
ROSEAU         FAIR      28  25  86 CALM      30.34R
WARROAD        FAIR      27  18  69 CALM      30.33S
THIEF RVR FALL FAIR      29  25  85 E5        30.34R WCI  24
CROOKSTON      FAIR      34  25  69 NE3       30.35R
FOSSTON        FAIR      25   9  50 CALM      30.34R
DETROIT LAKES  FAIR      30  27  86 CALM      30.34R
MOORHEAD       FAIR      32  28  86 CALM      30.34S
PARK RAPIDS    FAIR      26  19  74 CALM      30.32R
MAHNOMEN       FAIR      31  17  57 SE3       30.32S
$$
MNZ006-009>011-018-025>026-191000-
   North Central Minnesota

CITY           SKY/WX    TMP DP  RH WIND       PRES   REMARKS
BAUDETTE       FAIR      26  22  84 CALM      30.32R
FLAG ISLAND    FAIR      28  12  50 CALM      30.32S
INTL FALLS     FAIR      22  18  85 CALM      30.32R
WASKISH        FAIR      21  19  93 CALM      30.33R
BIG FORK       FAIR      21  18  86 CALM      30.32R
LONGVILLE      FAIR      21  18  86 CALM      30.33R
GRAND RAPIDS   FAIR      26  15  63 CALM      30.33R
CRANE LAKE     FAIR      16  16 100 CALM      30.34R
ORR            FAIR      23  12  63 CALM      30.29R
COOK           FAIR      19  16  86 CALM      30.31R
WALKER         FAIR      28  12  52 CALM      30.31S
$$
MNZ012-019>021-037-191000-
   Northeast Minnesota

CITY           SKY/WX    TMP DP  RH WIND       PRES   REMARKS
DULUTH         FAIR      23  11  60 NW6       30.28R WCI  16
ELY            FAIR      18  14  86 CALM      30.29R
HIBBING        FAIR      19  16  88 CALM      30.29R
EVELETH        FAIR      20  18  90 CALM      30.30R
DULUTH HARBOR  FAIR      27  19  74 S5        30.31R WCI  21
TWO HARBORS    FAIR      27  18  69 CALM      30.27R
SILVER BAY     FAIR      19  18  93 CALM      30.28R
GRAND MARAIS     N/A     36  14  40 N12G23    30.27R
G MARAIS ARPRT FAIR      25   9  50 NW5       30.26R WCI  19
$$
MNZ029>031-032-039>041-046>048-054>057-064-191000-
   West Central Minnesota

CITY           SKY/WX    TMP DP  RH WIND       PRES   REMARKS
FERGUS FALLS   FAIR      34  25  69 CALM      30.33R
WHEATON        CLOUDY    32  28  86 W5        30.36R WCI  27
MORRIS         PTCLDY    30  28  93 CALM      30.34R
ALEXANDRIA     FAIR      29  21  72 CALM      30.34R
ELBOW LAKE     FAIR      30  28  92 CALM      30.34R
WADENA         FAIR      25  19  80 CALM      30.33R
GLENWOOD       FAIR      30  25  80 S5        30.34R WCI  25
APPLETON       PTCLDY    30  27  86 CALM      30.36R
BENSON         CLOUDY    28  25  86 CALM      30.37R
ORTONVILLE     CLOUDY    32  28  86 E8        30.36R WCI  25
MADISON          N/A     32  28  86 CALM      30.35R
WILLMAR        FAIR      30  25  80 NW3       30.38R
$$
MNZ033>034-036-042>043-049>051-058-059-191000-
   Central Minnesota

CITY           SKY/WX    TMP DP  RH WIND       PRES   REMARKS
ST CLOUD       FAIR      29  16  58 NW5       30.33R WCI  24
SAUK CENTRE    FAIR      28  24  84 CALM      30.34S
PAYNESVILLE    FAIR      29  26  86 W5        30.35R WCI  24
AITKIN         FAIR      21  18  86 CALM      30.32R
PINE RIVER     FAIR      21  18  86 CALM      30.36R
BRAINERD       FAIR      26  16  65 CALM      30.33R
STAPLES        FAIR      25  18  74 CALM      30.34R
LONG PRAIRIE   FAIR      28  21  74 CALM      30.34R
LITTLE FALLS     N/A    N/A N/A N/A CALM        N/A
LITCHFIELD     FAIR      30  21  69 NW3       30.35R
BUFFALO        FAIR      27  16  63 CALM      30.34R
MAPLE LAKE     FAIR      29  19  64 W5        30.34R WCI  24
HUTCHINSON     FAIR      25  17  73 NW5       30.35R WCI  19
$$
MNZ037-044-045-052-053-191000-
   East Central Minnesota

CITY           SKY/WX    TMP DP  RH WIND       PRES   REMARKS
PRINCETON      FAIR      25  18  74 W5        30.33R WCI  19
MORA           FAIR      25  18  74 CALM      30.33R
RUSH CITY      FAIR      25  19  77 CALM      30.31R
MOOSE LAKE     FAIR      23  14  68 CALM      30.28S
HINCKLEY       FAIR      27  14  59 N3        30.30R
CLOQUET        FAIR      27   9  46 NW7       30.29R WCI  19
MCGREGOR       FAIR      27  18  69 W3        30.32R
$$
MNZ071>073-080-081-089-090-097-098-191000-
   Southwest Minnesota

CITY           SKY/WX    TMP DP  RH WIND       PRES   REMARKS
MONTEVIDEO     CLOUDY    28  25  86 CALM      30.36R
GRANITE FALLS  CLOUDY    30  25  81 CALM      30.37R
CANBY          PTCLDY    32  28  84 NW6       30.37R WCI  26
MARSHALL       CLOUDY    28  24  85 NW6       30.36R WCI  22
REDWOOD FALLS  PTCLDY    33  16  49 N5        30.34R WCI  29
OLIVIA         PTCLDY    32  23  69 CALM      30.35R
PIPESTONE      CLOUDY   N/A N/A N/A NE5       30.32R
WINDOM           N/A     21   7  53 N12       30.32R WCI   9
WORTHINGTON    CLOUDY    23  17  78 N14       30.33R WCI  11
JACKSON        PTCLDY    23  18  80 N5        30.32R WCI  17
SLAYTON        CLOUDY    28  18  67 N5        30.33R WCI  22
$$
MNZ065>067-074>077-082>085-091>093-191000-
   South Central Minnesota

CITY           SKY/WX    TMP DP  RH WIND       PRES   REMARKS
MANKATO        FAIR      23  19  85 NW3       30.31R
NEW ULM        CLOUDY    25  16  68 N5        30.33R WCI  19
ST JAMES       PTCLDY    25  18  74 W6        30.33R WCI  18
FAIRMONT       PTCLDY    24  19  81 N9        30.32R WCI  14
GLENCOE        FAIR      29  16  58 NW9       30.33R WCI  21
OWATONNA       FAIR      18  16  93 CALM      30.28R
WASECA         FAIR      19  16  86 CALM      30.30R
ALBERT LEA     FAIR      21  18  86 N5        30.28R WCI  15
$$
MNZ078>079-086>088-094>096-191000-
   Southeast Minnesota

CITY           SKY/WX    TMP DP  RH WIND       PRES   REMARKS
ROCHESTER      FAIR      20  18  92 NW10      30.27R WCI   9
RED WING       FAIR      27  16  63 CALM      30.30R
STANTON        FAIR      19  16  87 E3        30.28S
DODGE CENTER   FAIR      21  18  86 NW6       30.27S WCI  14
WINONA         FAIR      27  27 100 NW5       30.27R WCI  21
AUSTIN         FAIR      21  19  93 N3        30.28R
PRESTON        FAIR      24  20  83 NW8       30.26R WCI  16
$$
ABBREVIATIONS USED IN REMARKS
   TC - TEMPERATURES IN CELSIUS
  WCI - WIND CHILL INDEX
   HX - HEAT INDEX
  VSB - VISIBILITY
$$




USA.gov is the U.S. government's official web portal to all federal, state and local government web resources and services.